timestamp,wind_dir_avg,wind_spd_avg,wind_spd_max_dir,wind_spd_gust,battery_voltage,lat,long
2021-07-18 00:04:00+00:00,214.0,6.81,214.0,7.26,13.21,47.59359,-54.27349
2021-07-18 00:14:01+00:00,212.0,6.3,214.0,6.61,12.73,47.59359,-54.27349
2021-07-18 00:24:01+00:00,212.0,5.8,214.0,6.22,12.73,47.59359,-54.27349
2021-07-18 00:34:01+00:00,212.0,4.78,211.0,5.29,12.73,47.59359,-54.27349
2021-07-18 00:44:01+00:00,216.0,4.79,216.0,5.2,12.73,47.59359,-54.27349
2021-07-18 00:54:01+00:00,206.0,4.32,209.0,4.88,12.73,47.59359,-54.27349
2021-07-18 01:04:01+00:00,203.0,3.94,206.0,4.34,12.73,47.59359,-54.27349
2021-07-18 01:14:01+00:00,199.0,3.08,196.0,3.59,12.65,47.59359,-54.27349
2021-07-18 01:24:01+00:00,208.0,3.94,206.0,5.3,12.65,47.59359,-54.27349
2021-07-18 01:34:01+00:00,215.0,3.62,216.0,4.08,12.65,47.59359,-54.27349
2021-07-18 01:44:01+00:00,304.0,1.73,314.0,2.08,12.65,47.59359,-54.27349
2021-07-18 01:54:01+00:00,243.0,1.89,235.0,2.3,12.65,47.59359,-54.27349
2021-07-18 02:04:01+00:00,215.0,3.1,221.0,3.54,12.65,47.59359,-54.27349
2021-07-18 02:14:00+00:00,228.0,2.76,229.0,3.07,12.65,47.59359,-54.27349
2021-07-18 02:24:00+00:00,234.0,2.64,233.0,2.85,12.65,47.59359,-54.27349
2021-07-18 02:34:00+00:00,224.0,1.94,226.0,2.22,12.65,47.59359,-54.27349
2021-07-18 02:44:00+00:00,243.0,2.4,244.0,2.73,12.65,47.59359,-54.27349
2021-07-18 02:54:00+00:00,231.0,1.95,233.0,2.18,12.65,47.59359,-54.27349
2021-07-18 03:04:00+00:00,222.0,1.32,221.0,1.66,12.65,47.59359,-54.27349
2021-07-18 03:14:01+00:00,213.0,1.18,220.0,1.56,12.65,47.59359,-54.27349
2021-07-18 03:24:01+00:00,227.0,1.1,224.0,1.47,12.65,47.59359,-54.27349
2021-07-18 03:34:01+00:00,222.0,1.59,222.0,1.81,12.65,47.59359,-54.27349
2021-07-18 03:44:01+00:00,201.0,2.49,207.0,2.61,12.65,47.59359,-54.27349
2021-07-18 03:54:01+00:00,217.0,1.86,217.0,1.99,12.65,47.59359,-54.27349
2021-07-18 04:04:01+00:00,157.0,1.46,168.0,2.13,12.65,47.59359,-54.27349
2021-07-18 04:14:01+00:00,170.0,1.26,173.0,1.47,12.57,47.59359,-54.27349
2021-07-18 04:24:01+00:00,182.0,1.99,183.0,2.37,12.57,47.59359,-54.27349
2021-07-18 04:34:01+00:00,205.0,2.62,206.0,2.72,12.57,47.59359,-54.27349
2021-07-18 04:44:01+00:00,192.0,2.9,193.0,3.07,12.57,47.59359,-54.27349
2021-07-18 04:54:01+00:00,202.0,2.56,201.0,2.67,12.57,47.59359,-54.27349
2021-07-18 05:04:01+00:00,190.0,2.89,193.0,3.01,12.57,47.59359,-54.27349
2021-07-18 05:14:00+00:00,199.0,2.8,200.0,2.98,12.57,47.59359,-54.27349
2021-07-18 05:24:00+00:00,213.0,2.76,214.0,2.89,12.57,47.59359,-54.27349
2021-07-18 05:34:00+00:00,188.0,2.21,190.0,2.34,12.57,47.59359,-54.27349
2021-07-18 05:44:00+00:00,183.0,2.46,185.0,2.62,12.57,47.59359,-54.27349
2021-07-18 05:54:00+00:00,172.0,2.4,175.0,2.67,12.57,47.59359,-54.27349
2021-07-18 06:04:00+00:00,183.0,2.46,191.0,2.86,12.57,47.59359,-54.27349
2021-07-18 06:14:01+00:00,208.0,2.59,201.0,3.43,12.57,47.59359,-54.27349
2021-07-18 06:24:01+00:00,207.0,3.3,206.0,3.5,12.57,47.59359,-54.27349
2021-07-18 06:34:01+00:00,198.0,3.19,199.0,3.35,12.57,47.59359,-54.27349
2021-07-18 06:44:01+00:00,207.0,2.46,208.0,2.65,12.57,47.59359,-54.27349
2021-07-18 06:54:01+00:00,203.0,2.58,201.0,2.72,12.57,47.59359,-54.27349
2021-07-18 07:04:01+00:00,199.0,3.14,204.0,3.27,12.57,47.59359,-54.27349
2021-07-18 07:14:01+00:00,193.0,3.1,194.0,3.19,12.57,47.59359,-54.27349
2021-07-18 07:24:01+00:00,197.0,2.93,198.0,3.18,12.57,47.59359,-54.27349
2021-07-18 07:34:01+00:00,184.0,2.06,185.0,2.18,12.57,47.59359,-54.27349
2021-07-18 07:44:01+00:00,202.0,2.14,202.0,2.23,12.57,47.59359,-54.27349
2021-07-18 07:54:01+00:00,215.0,2.46,216.0,2.61,12.57,47.59359,-54.27349
2021-07-18 08:04:01+00:00,245.0,1.83,246.0,1.95,12.57,47.59359,-54.27349
2021-07-18 08:14:00+00:00,254.0,2.29,252.0,2.41,12.49,47.59359,-54.27349
2021-07-18 08:24:00+00:00,250.0,2.24,251.0,2.32,12.49,47.59359,-54.27349
2021-07-18 08:34:00+00:00,227.0,2.22,224.0,2.53,12.49,47.59359,-54.27349
2021-07-18 08:44:00+00:00,191.0,2.4,190.0,2.88,12.49,47.59359,-54.27349
2021-07-18 08:54:00+00:00,198.0,2.75,198.0,3.14,12.49,47.59359,-54.27349
2021-07-18 09:04:00+00:00,206.0,1.86,205.0,2.21,12.49,47.59359,-54.27349
2021-07-18 09:14:00+00:00,189.0,2.1,191.0,2.31,12.89,47.59359,-54.27349
2021-07-18 09:24:00+00:00,224.0,1.57,232.0,1.7,12.89,47.59359,-54.27349
2021-07-18 09:34:00+00:00,221.0,1.79,225.0,2.07,12.89,47.59359,-54.27349
2021-07-18 09:44:00+00:00,222.0,1.37,222.0,1.53,12.89,47.59359,-54.27349
2021-07-18 09:54:00+00:00,202.0,2.52,201.0,2.85,12.89,47.59359,-54.27349
2021-07-18 10:04:00+00:00,197.0,2.56,195.0,2.72,12.89,47.59359,-54.27349
2021-07-18 10:14:00+00:00,212.0,2.27,213.0,2.75,13.53,47.59359,-54.27349
2021-07-18 10:24:00+00:00,220.0,2.68,214.0,3.0,13.53,47.59359,-54.27349
2021-07-18 10:34:00+00:00,210.0,3.19,211.0,3.38,13.53,47.59359,-54.27349
2021-07-18 10:44:00+00:00,214.0,2.84,214.0,3.04,13.53,47.59359,-54.27349
2021-07-18 10:54:00+00:00,218.0,2.61,217.0,2.91,13.53,47.59359,-54.27349
2021-07-18 11:04:00+00:00,209.0,2.86,209.0,3.08,13.53,47.59359,-54.27349
2021-07-18 11:14:01+00:00,217.0,3.06,221.0,3.36,13.76,47.59359,-54.27349
2021-07-18 11:24:01+00:00,220.0,1.87,224.0,2.29,13.76,47.59359,-54.27349
2021-07-18 11:34:01+00:00,215.0,3.68,215.0,4.43,13.76,47.59359,-54.27349
2021-07-18 11:44:01+00:00,214.0,4.67,222.0,5.38,13.76,47.59359,-54.27349
2021-07-18 11:54:01+00:00,205.0,4.56,207.0,4.76,13.76,47.59359,-54.27349
2021-07-18 12:04:01+00:00,194.0,4.01,199.0,4.74,13.76,47.59359,-54.27349
2021-07-18 12:14:01+00:00,152.0,2.59,154.0,3.26,13.84,47.59359,-54.27349
2021-07-18 12:24:01+00:00,197.0,6.16,196.0,6.84,13.84,47.59359,-54.27349
2021-07-18 12:34:01+00:00,182.0,4.45,182.0,4.82,13.84,47.59359,-54.27349
2021-07-18 12:44:01+00:00,188.0,5.09,188.0,5.66,13.84,47.59359,-54.27349
2021-07-18 12:54:01+00:00,199.0,5.74,198.0,6.61,13.84,47.59359,-54.27349
2021-07-18 13:04:01+00:00,197.0,5.89,205.0,6.73,13.84,47.59359,-54.27349
2021-07-18 13:14:01+00:00,204.0,7.24,204.0,7.92,14.08,47.59359,-54.27349
2021-07-18 13:24:01+00:00,200.0,5.04,206.0,6.41,14.08,47.59359,-54.27349
2021-07-18 13:34:01+00:00,200.0,8.02,201.0,10.42,14.08,47.59359,-54.27349
2021-07-18 13:44:01+00:00,200.0,7.62,201.0,8.31,14.08,47.59359,-54.27349
2021-07-18 13:54:01+00:00,209.0,7.65,204.0,9.69,14.08,47.59359,-54.27349
2021-07-18 14:04:01+00:00,212.0,9.12,219.0,10.96,14.08,47.59359,-54.27349
2021-07-18 14:14:01+00:00,211.0,9.33,212.0,10.37,14.24,47.59359,-54.27349
2021-07-18 14:24:01+00:00,211.0,9.53,214.0,10.85,14.24,47.59359,-54.27349
2021-07-18 14:34:01+00:00,208.0,8.82,211.0,10.09,14.24,47.59359,-54.27349
2021-07-18 14:44:01+00:00,207.0,8.95,209.0,10.04,14.24,47.59359,-54.27349
2021-07-18 14:54:01+00:00,205.0,7.94,203.0,9.82,14.24,47.59359,-54.27349
2021-07-18 15:04:01+00:00,205.0,9.09,211.0,11.49,14.24,47.59359,-54.27349
2021-07-18 15:14:01+00:00,209.0,9.74,211.0,11.11,14.16,47.59359,-54.27349
2021-07-18 15:24:01+00:00,210.0,9.6,212.0,10.7,14.16,47.59359,-54.27349
2021-07-18 15:34:01+00:00,211.0,10.01,207.0,12.13,14.16,47.59359,-54.27349
2021-07-18 15:44:01+00:00,211.0,9.81,213.0,10.96,14.16,47.59359,-54.27349
2021-07-18 15:54:01+00:00,211.0,10.1,212.0,12.14,14.16,47.59359,-54.27349
2021-07-18 16:04:01+00:00,209.0,9.67,213.0,10.82,14.16,47.59359,-54.27349
2021-07-18 16:14:01+00:00,210.0,10.86,211.0,12.19,14.24,47.59359,-54.27349
2021-07-18 16:24:01+00:00,211.0,10.71,209.0,11.73,14.24,47.59359,-54.27349
2021-07-18 16:34:01+00:00,210.0,10.84,212.0,11.91,14.24,47.59359,-54.27349
2021-07-18 16:44:01+00:00,212.0,11.09,212.0,11.81,14.24,47.59359,-54.27349
2021-07-18 16:54:01+00:00,212.0,10.36,212.0,11.81,14.24,47.59359,-54.27349
2021-07-18 17:04:01+00:00,212.0,9.46,215.0,10.53,14.24,47.59359,-54.27349
2021-07-18 17:14:01+00:00,212.0,9.79,212.0,11.67,14.16,47.59359,-54.27349
2021-07-18 17:24:01+00:00,209.0,9.72,209.0,11.6,14.16,47.59359,-54.27349
2021-07-18 17:34:01+00:00,211.0,10.23,212.0,11.47,14.16,47.59359,-54.27349
2021-07-18 17:44:01+00:00,210.0,10.62,209.0,12.12,14.16,47.59359,-54.27349
2021-07-18 17:54:01+00:00,210.0,9.81,213.0,10.92,14.16,47.59359,-54.27349
2021-07-18 18:04:01+00:00,212.0,10.45,210.0,12.18,14.16,47.59359,-54.27349
2021-07-18 18:14:01+00:00,211.0,10.16,214.0,11.4,13.84,47.59359,-54.27349
2021-07-18 18:24:01+00:00,212.0,10.48,213.0,11.73,13.84,47.59359,-54.27349
2021-07-18 18:34:01+00:00,214.0,10.1,214.0,11.56,13.84,47.59359,-54.27349
2021-07-18 18:44:01+00:00,211.0,10.21,223.0,11.92,13.84,47.59359,-54.27349
2021-07-18 18:54:01+00:00,211.0,9.79,210.0,10.85,13.84,47.59359,-54.27349
2021-07-18 19:04:01+00:00,214.0,8.4,213.0,10.09,13.84,47.59359,-54.27349
2021-07-18 19:14:01+00:00,213.0,9.14,211.0,9.89,13.84,47.59359,-54.27349
2021-07-18 19:24:01+00:00,210.0,8.46,212.0,9.54,13.84,47.59359,-54.27349
2021-07-18 19:34:01+00:00,206.0,8.74,208.0,9.76,13.84,47.59359,-54.27349
2021-07-18 19:44:01+00:00,210.0,8.16,212.0,8.98,13.84,47.59359,-54.27349
2021-07-18 19:54:01+00:00,211.0,9.16,211.0,10.13,13.84,47.59359,-54.27349
2021-07-18 20:04:01+00:00,216.0,6.72,216.0,7.82,13.84,47.59359,-54.27349
2021-07-18 20:14:01+00:00,216.0,7.33,221.0,8.85,13.84,47.59359,-54.27349
2021-07-18 20:24:01+00:00,217.0,7.77,220.0,8.41,13.84,47.59359,-54.27349
2021-07-18 20:34:01+00:00,218.0,6.61,219.0,7.49,13.84,47.59359,-54.27349
2021-07-18 20:44:01+00:00,216.0,6.67,219.0,7.6,13.84,47.59359,-54.27349
2021-07-18 20:54:01+00:00,203.0,6.09,202.0,6.48,13.84,47.59359,-54.27349
2021-07-18 21:04:01+00:00,207.0,7.08,209.0,7.69,13.84,47.59359,-54.27349
2021-07-18 21:14:01+00:00,209.0,6.54,209.0,7.03,13.76,47.59359,-54.27349
2021-07-18 21:24:01+00:00,206.0,7.11,204.0,7.56,13.76,47.59359,-54.27349
2021-07-18 21:34:01+00:00,201.0,6.82,202.0,7.37,13.76,47.59359,-54.27349
2021-07-18 21:44:01+00:00,207.0,6.01,206.0,6.53,13.76,47.59359,-54.27349
2021-07-18 21:54:01+00:00,202.0,6.5,204.0,7.21,13.76,47.59359,-54.27349
2021-07-18 22:04:01+00:00,203.0,6.0,204.0,6.59,13.76,47.59359,-54.27349
2021-07-18 22:14:01+00:00,200.0,6.15,199.0,6.59,13.6,47.59359,-54.27349
2021-07-18 22:24:01+00:00,207.0,5.68,206.0,6.13,13.6,47.59359,-54.27349
2021-07-18 22:34:01+00:00,207.0,6.07,210.0,6.44,13.6,47.59359,-54.27349
2021-07-18 22:44:01+00:00,211.0,5.88,213.0,6.27,13.6,47.59359,-54.27349
2021-07-18 22:54:01+00:00,205.0,6.89,205.0,7.24,13.6,47.59359,-54.27349
2021-07-18 23:04:01+00:00,208.0,5.94,211.0,6.29,13.6,47.59359,-54.27349
2021-07-18 23:14:00+00:00,211.0,6.31,212.0,6.86,13.29,47.59359,-54.27349
2021-07-18 23:24:00+00:00,219.0,5.62,219.0,6.15,13.29,47.59359,-54.27349
2021-07-18 23:34:00+00:00,231.0,5.68,230.0,6.23,13.29,47.59359,-54.27349
2021-07-18 23:44:00+00:00,233.0,4.46,230.0,5.16,13.29,47.59359,-54.27349
2021-07-18 23:54:00+00:00,243.0,3.49,233.0,4.25,13.29,47.59359,-54.27349
